• en France
  • Liste des pays
  • À 7 jours
  • Température de l'eau
  • Carte satellitaire
  • Carte météo
  • Widgets météo
  • user-avatar
    Se connecter

    Météo par heure à Canberra

    Ce jour, 15 Octobre, Lundi

    Heure Température Précipitation Vent Pression Humidité
    00:00 +12°C° 0 mm 2 m/s 715 mmHg 96%
    01:00 +10°C° 0 mm 2 m/s 715 mmHg 96%
    02:00 +12°C° 0 mm 2 m/s 715 mmHg 96%
    03:00 +12°C° 0 mm 2 m/s 715 mmHg 96%
    04:00 +11°C° 0 mm 1 m/s 714 mmHg 96%
    05:00 +12°C° 0 mm 1 m/s 715 mmHg 94%
    06:00 +12°C° 0 mm 2 m/s 715 mmHg 93%
    07:00 +13°C° 0 mm 2 m/s 715 mmHg 91%
    08:00 +13°C° 0 mm 3 m/s 715 mmHg 85%
    09:00 +16°C° 0 mm 3 m/s 715 mmHg 79%
    10:00 +19°C° 0 mm 3 m/s 715 mmHg 66%
    11:00 +20°C° 0.1 mm 3 m/s 715 mmHg 64%
    12:00 +20°C° 0.1 mm 4 m/s 715 mmHg 62%
    13:00 +21°C° 0.1 mm 4 m/s 714 mmHg 60%
    14:00 +21°C° 0.1 mm 4 m/s 714 mmHg 63%
    15:00 +20°C° 0.1 mm 5 m/s 714 mmHg 67%
    16:00 +20°C° 0 mm 4 m/s 713 mmHg 70%
    17:00 +19°C° 0.1 mm 4 m/s 713 mmHg 76%
    18:00 +17°C° 0.1 mm 4 m/s 713 mmHg 83%
    19:00 +14°C° 0.1 mm 3 m/s 713 mmHg 89%
    20:00 +14°C° 0 mm 3 m/s 713 mmHg 91%
    21:00 +13°C° 0 mm 3 m/s 713 mmHg 93%
    22:00 +13°C° 0 mm 3 m/s 713 mmHg 95%
    23:00 +13°C° 0 mm 3 m/s 713 mmHg 95%

    Demain, 16 Octobre, Mardi

    Heure Température Précipitation Vent Pression Humidité
    00:00 +13°C° 0 mm 3 m/s 713 mmHg 95%
    01:00 +12°C° 0 mm 3 m/s 713 mmHg 95%
    02:00 +12°C° 0 mm 3 m/s 712 mmHg 95%
    03:00 +12°C° 0 mm 3 m/s 712 mmHg 96%
    04:00 +13°C° 0 mm 2 m/s 712 mmHg 96%
    05:00 +13°C° 0 mm 3 m/s 712 mmHg 94%
    06:00 +13°C° 0 mm 3 m/s 712 mmHg 92%
    07:00 +14°C° 0 mm 3 m/s 713 mmHg 90%
    08:00 +16°C° 0 mm 3 m/s 713 mmHg 84%
    09:00 +18°C° 0 mm 3 m/s 713 mmHg 78%
    10:00 +19°C° 0 mm 3 m/s 713 mmHg 72%
    11:00 +20°C° 0.2 mm 3 m/s 713 mmHg 71%
    12:00 +21°C° 0.2 mm 3 m/s 712 mmHg 70%
    13:00 +21°C° 0.2 mm 3 m/s 712 mmHg 69%
    14:00 +21°C° 0.6 mm 3 m/s 712 mmHg 72%
    15:00 +20°C° 0.6 mm 3 m/s 711 mmHg 75%
    16:00 +20°C° 0.6 mm 3 m/s 711 mmHg 77%
    17:00 +19°C° 0.2 mm 3 m/s 711 mmHg 82%
    18:00 +17°C° 0.2 mm 3 m/s 711 mmHg 87%
    19:00 +16°C° 0.2 mm 3 m/s 711 mmHg 92%
    20:00 +14°C° 0 mm 3 m/s 710 mmHg 93%
    21:00 +14°C° 0 mm 3 m/s 710 mmHg 93%
    22:00 +14°C° 0 mm 4 m/s 710 mmHg 94%
    23:00 +13°C° 0 mm 3 m/s 710 mmHg 95%

    Après-demain, 17 Octobre, Mercredi

    Heure Température Précipitation Vent Pression Humidité
    00:00 +13°C° 0 mm 3 m/s 710 mmHg 95%
    01:00 +14°C° 0 mm 2 m/s 710 mmHg 96%
    02:00 +14°C° 0.2 mm 2 m/s 709 mmHg 96%
    03:00 +14°C° 0.2 mm 2 m/s 709 mmHg 96%
    04:00 +14°C° 0.2 mm 2 m/s 709 mmHg 96%
    05:00 +14°C° 0.6 mm 2 m/s 709 mmHg 96%
    06:00 +14°C° 0.6 mm 2 m/s 709 mmHg 96%
    07:00 +15°C° 0.6 mm 2 m/s 709 mmHg 96%
    08:00 +15°C° 0.5 mm 2 m/s 709 mmHg 94%
    09:00 +16°C° 0.5 mm 3 m/s 709 mmHg 93%
    10:00 +17°C° 0.5 mm 3 m/s 709 mmHg 91%
    11:00 +17°C° 0.6 mm 3 m/s 709 mmHg 91%
    12:00 +18°C° 0.6 mm 3 m/s 709 mmHg 91%
    13:00 +18°C° 0.6 mm 3 m/s 708 mmHg 91%
    14:00 +18°C° 0.9 mm 3 m/s 708 mmHg 91%
    15:00 +18°C° 0.9 mm 3 m/s 708 mmHg 92%
    16:00 +18°C° 0.9 mm 3 m/s 707 mmHg 92%
    17:00 +17°C° 0.8 mm 2 m/s 707 mmHg 93%
    18:00 +16°C° 0.8 mm 2 m/s 707 mmHg 95%
    19:00 +15°C° 0.8 mm 1 m/s 708 mmHg 97%
    20:00 +15°C° 0.2 mm 1 m/s 708 mmHg 97%
    21:00 +14°C° 0.2 mm 1 m/s 708 mmHg 98%
    22:00 +13°C° 0.2 mm 1 m/s 708 mmHg 98%
    23:00 +13°C° 0 mm 1 m/s 708 mmHg 98%

    18 Octobre, Jeudi

    Heure Température Précipitation Vent Pression Humidité
    00:00 +13°C° 0 mm 1 m/s 708 mmHg 98%
    01:00 +13°C° 0 mm 1 m/s 707 mmHg 98%
    02:00 +13°C° 0 mm 1 m/s 707 mmHg 98%
    03:00 +13°C° 0 mm 1 m/s 707 mmHg 98%
    04:00 +12°C° 0 mm 1 m/s 707 mmHg 98%
    05:00 +13°C° 0 mm 1 m/s 707 mmHg 97%
    06:00 +13°C° 0 mm 1 m/s 708 mmHg 96%
    07:00 +14°C° 0 mm 1 m/s 708 mmHg 95%
    08:00 +16°C° 0 mm 2 m/s 708 mmHg 85%
    09:00 +18°C° 0 mm 2 m/s 709 mmHg 74%
    10:00 +19°C° 0 mm 3 m/s 709 mmHg 63%
    11:00 +20°C° 0 mm 3 m/s 709 mmHg 59%
    12:00 +21°C° 0 mm 4 m/s 708 mmHg 55%
    13:00 +22°C° 0 mm 4 m/s 708 mmHg 50%
    14:00 +22°C° 0 mm 4 m/s 708 mmHg 51%
    15:00 +21°C° 0 mm 4 m/s 707 mmHg 53%
    16:00 +21°C° 0 mm 3 m/s 707 mmHg 54%
    17:00 +19°C° 0 mm 3 m/s 707 mmHg 63%
    18:00 +16°C° 0 mm 2 m/s 707 mmHg 73%
    19:00 +14°C° 0 mm 2 m/s 708 mmHg 82%
    20:00 +13°C° 0 mm 2 m/s 708 mmHg 85%
    21:00 +12°C° 0 mm 2 m/s 708 mmHg 88%
    22:00 +11°C° 0 mm 1 m/s 708 mmHg 91%
    23:00 +11°C° 0 mm 1 m/s 708 mmHg 91%

    19 Octobre, Vendredi

    Heure Température Précipitation Vent Pression Humidité
    00:00 +11°C° 0 mm 1 m/s 708 mmHg 92%
    01:00 +10°C° 0 mm 1 m/s 708 mmHg 92%
    02:00 +10°C° 0 mm 1 m/s 708 mmHg 93%
    03:00 +10°C° 0 mm 1 m/s 708 mmHg 93%
    04:00 +9°C° 0 mm 1 m/s 708 mmHg 94%
    05:00 +11°C° 0 mm 1 m/s 708 mmHg 89%
    06:00 +12°C° 0 mm 1 m/s 708 mmHg 84%
    07:00 +14°C° 0 mm 1 m/s 709 mmHg 79%
    08:00 +16°C° 0 mm 2 m/s 709 mmHg 69%
    09:00 +18°C° 0 mm 3 m/s 709 mmHg 59%
    10:00 +20°C° 0 mm 3 m/s 709 mmHg 50%
    11:00 +21°C° 0 mm 4 m/s 708 mmHg 47%
    12:00 +23°C° 0 mm 4 m/s 708 mmHg 44%
    13:00 +25°C° 0 mm 4 m/s 707 mmHg 42%
    14:00 +23°C° 0 mm 4 m/s 707 mmHg 43%
    15:00 +23°C° 0 mm 4 m/s 706 mmHg 44%
    16:00 +23°C° 0 mm 4 m/s 706 mmHg 46%
    17:00 +21°C° 0 mm 3 m/s 706 mmHg 53%
    18:00 +19°C° 0 mm 3 m/s 706 mmHg 60%
    19:00 +16°C° 0 mm 2 m/s 706 mmHg 67%
    20:00 +16°C° 0 mm 2 m/s 706 mmHg 65%
    21:00 +16°C° 0 mm 1 m/s 706 mmHg 64%
    22:00 +15°C° 0 mm 1 m/s 706 mmHg 63%
    23:00 +15°C° 0 mm 1 m/s 705 mmHg 61%

    20 Octobre, Samedi

    Heure Température Précipitation Vent Pression Humidité
    00:00 +16°C° 0 mm 1 m/s 705 mmHg 58%
    01:00 +16°C° 0 mm 2 m/s 704 mmHg 56%
    02:00 +16°C° 0 mm 2 m/s 704 mmHg 55%
    03:00 +15°C° 0 mm 2 m/s 704 mmHg 54%
    04:00 +15°C° 0 mm 2 m/s 704 mmHg 53%
    05:00 +16°C° 0 mm 3 m/s 705 mmHg 55%
    06:00 +17°C° 0 mm 3 m/s 706 mmHg 56%
    07:00 +17°C° 0 mm 4 m/s 707 mmHg 58%
    08:00 +18°C° 0.1 mm 4 m/s 707 mmHg 58%
    09:00 +19°C° 0.1 mm 5 m/s 708 mmHg 58%
    10:00 +20°C° 0.1 mm 5 m/s 708 mmHg 58%
    11:00 +20°C° 0.2 mm 5 m/s 709 mmHg 51%
    12:00 +20°C° 0.2 mm 5 m/s 709 mmHg 45%
    13:00 +21°C° 0.2 mm 5 m/s 709 mmHg 38%
    14:00 +20°C° 0 mm 5 m/s 709 mmHg 38%
    15:00 +20°C° 0 mm 4 m/s 710 mmHg 39%
    16:00 +19°C° 0 mm 4 m/s 710 mmHg 39%
    17:00 +17°C° 0 mm 3 m/s 710 mmHg 52%
    18:00 +13°C° 0 mm 3 m/s 711 mmHg 64%
    19:00 +12°C° 0 mm 2 m/s 711 mmHg 77%
    20:00 +10°C° 0 mm 2 m/s 712 mmHg 81%
    21:00 +10°C° 0 mm 2 m/s 713 mmHg 85%
    22:00 +9°C° 0 mm 2 m/s 713 mmHg 90%
    23:00 +8°C° 0 mm 2 m/s 713 mmHg 91%
    Voir plus